Location: Aalen
(48.8330°N, 10.1000°E)
Time: 18:44:36
(UTC+02:00)

Transit 4A - Pass Details

Date: 05 August 2021
Orbit: 871 x 974 km, 66.8° (Epoch: 16 September)

Event Time Altitude Azimuth Distance (km) Brightness Sun altitude
Rises 06:33:09 0° 323° (NW) 3,470 10.7 4.4°
Reaches altitude 10° 06:36:18 10° 339° (NNW) 2,534 10.2 4.8°
Maximum altitude 06:40:38 21° 27° (NNE) 1,884 10.3 5.5°
Drops below altitude 10° 06:45:01 10° 76° (ENE) 2,557 13.2 6.2°
Sets 06:48:12 0° 92° (E) 3,511 12.5 6.7°
